{"data":{"norad_id":53669,"intl_designator":"2022-105X","name":"STARLINK-4464","alt_names":[],"object_type":"PAYLOAD","status":"ACTIVE","operator":null,"country":"US","launch_date":"2022-08-31","launch_site_code":"AFWTR","launch_vehicle":null,"mission":null,"orbit_class":"UNKNOWN","rcs_meters":null,"size_class":null,"mass_kg":null,"dimensions":null,"purposes":["comms"],"wikipedia_slug":null,"has_3d_model":false,"image_url":null,"decayed_at":null,"tle_current":{"epoch":"2026-05-25T04:00:03.998880Z","epoch_age_seconds":53861,"freshness":"FRESH","line1":"1 53669U 22105X   26145.16671295  .00086130  00000+0  22982-2 0  9996","line2":"2 53669  97.6045  27.0460 0001837  73.2609  62.8671 15.37798963  5875","mean_motion":15.37798963,"eccentricity":0.0001837,"inclination_deg":97.6045,"raan_deg":27.046,"arg_perigee_deg":73.2609,"mean_anomaly_deg":62.8671,"bstar":0.0022982,"rev_number":587,"period_min":93.640328459501,"perigee_km":451.36460814706,"apogee_km":453.87422805508,"semimajor_km":6830.7564181011,"source":"CELESTRAK","updated_at":"2026-05-25T13:38:17.488453Z"}}}